Find Starlink 30246

NORAD ID: 57615 Int'l Des: 2023-119 Owner: SPXS Country: US Constellation: starlink operational
LEOCIRCULAR

实时位置

正在加载3D地球...

关于 Starlink 30246

正在加载描述...

即将过境

Passes for default location (London). Set your location on the main map for personalized predictions.

高度历史

Loading altitude history...

两行轨道根数

1 57615U 23119P 26125.42148984 .00000337 00000-0 21771-4 0 9991
2 57615 43.0009 121.0924 0001426 266.9821 93.0867 15.27582572151765
Epoch: May 5, 2026 • Age: 18 hours

当前状态

高度 486.1 km
速度 7.63 km/s
星下点 38.56°N, 43.49°W
发射日期 Aug 11, 2023
运行时间 2.7 years
类型 internet

技术详情

分类 Payload
质量 730.00 kg
干质量 700.00 kg
总质量 730.00 kg
长度 0.30 m
直径 4.10 m
跨度 29.00 m
形状 Box + pan
制造商 SPXS
平台类型 Starlink V2M
阶段状态 In Orbit
所有者/国家 SPXS/US

Most Searched